Location: Recife
(8.0585°S, 34.8848°W)
Time: 21:11:04
(UTC-03:00)

S-56A Canister/Altair - Pass Details

Date: 14 April 2026
Orbit: 633 x 2484 km, 38.9° (Epoch: 16 May)

Event Time Altitude Azimuth Distance (km) Brightness Sun altitude
Rises 13:44:40 0° 313° (NW) 5,596 12.5 49.8°
Reaches altitude 10° 13:48:45 10° 314° (NW) 4,348 12.2 48.9°
Maximum altitude 13:59:56 81° 40° (NE) 1,432 9.7 46.4°
Drops below altitude 10° 14:07:08 10° 127° (SE) 2,897 10.2 44.8°
Sets 14:09:21 0° 128° (SE) 3,665 10.6 44.2°
